STARLINK-30114, 56826

Orbit data source: Space-Track

STARLINK-30114, 56826 is a payload satellite owned by SpaceX/Seattle (US) in LEO that was launched on Sun, 04 Jun 2023 UTC via an FALCON 9 launch vehicle from the Air Force Eastern Test Range (AFETR). Payload-class satellites include a variety of spacecraft equipped with specific instruments for various scientific and technological missions. These include communications satellites like Starlink; space stations such as the ISS; scientific satellites like the Hubble; Earth observation satellites from companies like Planet Labs, Umbra, and HawkEye 360; GPS; miniature CubeSats for education and research; and military/defense satellites.

Loading next visibility...
Identifier
56826, 2023-079D
Orbit
LEO
Country
Flag of USUS
Related business
Manufacturer
SpaceX/Seattle
Mission
Operational Commercial Communications
Bus & Motor
STARLINK V2M, Unknown motor
Mass
730 kg wet, ~700 kg dry
Launch date (UTC)
2023-06-04 (3 years ago)
Launch vehicle
FALCON 9
Launch site
Air Force Eastern Test Range (AFETR)
Object type
Payload
Rocket body
Debris
Shape & HBR
Box + 2 Pan, 17.7 m
Radar Cross Section
33.884 m², Large (>1 m²)

Expand to show TLE details & history
Last TLE update: 2 days ago

TLE from 2 days ago
0 STARLINK-30114
1 56826U 23079D   26171.26064137  .00002698  00000-0  10756-3 0  9991
2 56826  43.0042 247.7317 0001368 288.6456  71.4247 15.27576668168889
Epoch: 2026-06-20T06:15Z
TLE epoch observation values (Epoch: 2026-06-20T06:15:19.414Z)
Latitude
-0.00002°
Longitude
-114.57703°
Altitude
482.536 km
Speed
7.626 km/s
True Right ascension
16h 30m 55s
True Declination
0° 00' 00"
Sunlit
Object was in full shadow at epoch
Visualization orbit readout
Latitude
Unknown
Longitude
Unknown
Altitude
Unknown
Speed
Unknown
Apparent Right ascension
Unknown
Apparent Declination
Unknown
Sunlit
N/A
Visualization observer readout
Local Sidereal Time
21:31:09
Azimuth
Unknown
Elevation
Unknown
Doppler factor
Unknown
Orbital elements
Apogee altitude
485.942 km
Perigee altitude
484.065 km
Semi-major axis
6,863.141 km
Eccentricity
0.00014
Inclination
43.0042°
RAAN
247.7317°
Arg. of periapsis
288.6456°
True anomaly
71.43956°
Mean anomaly
71.4247°
Eccentric anomaly
71.43213°
Mean motion
3.81732 °/min
Orbital period
94.31 mins
BSTAR
0.00010756
Loading maneuver chart data...
Computing Atmospheric mass density...
Loading historical data...
Loading historical data...
Loading historical data...
Loading historical data...
Loading historical data...
Loading historical data...
Loading historical data...

Documentation

Showing up to 5 results
|